USA 149 (DSP 20)

Last updated on Tue Sep 16 2025 00:02:45 GMT+0000 (Coordinated Universal Time)

1 26356U 00024A 25258.55172913 .00000083 00000+0 00000+0 0 9992 2 26356 12.9628 13.7573 0002244 223.2037 151.0211 1.00273664 30169
UTC large
Height (km)
Speed (km/s)
/
Latitude / Longitude
Inclination (degrees)
Orbital Period (minutes)
Azimuth
Elevation
Range (km)
Doppler Factor

Next 0 passes for location: London (51.5072 / 0.1276)

Sorry there are no passes over London.